Regional Weather Roundup
Issued by NWS

Home | Current Version | Previous Version | Text Only | Print | Product List | Glossary Off
Versions: 1 2 3 4 5 6 7 8 9 10 11 12 13 14 15 16 17 18 19 20 21 22 23 24 25 26 27 28 29 30 31 32 33 34 35 36 37 38 39 40 41 42 43 44 45 46 47 48 49 50

000
ASUS43 KDMX 251806
RWRIA

WEATHER ROUNDUP FOR IOWA
NATIONAL WEATHER SERVICE DES MOINES IA
100 PM CDT FRI MAY 25 2018

NOTE: "FAIR" INDICATES FEW OR NO CLOUDS BELOW 12,000 FEET WITH NO
SIGNIFICANT WEATHER AND/OR OBSTRUCTIONS TO VISIBILITY.

* - THESE STATIONS ARE NOT NWS STATIONS...THUS NOT UNDER NWS
QUALITY CONTROL.  THEY ALSO DO NOT REPORT WEATHER SUCH
AS PRECIPITATION OR FOG.

IAZ001>003-012>014-020>022-031>034-043>046-251900-
   NORTHWEST IOWA

CITY           SKY/WX    TMP DP  RH WIND       PRES   REMARKS
SIOUX CITY     SUNNY     88  66  48 NE5       29.80F HX  90
6HR MIN TEMP:  65; 6HR MAX TEMP:  88;

SPENCER        SUNNY     88  61  40 NW5       29.81F HX  88
6HR MIN TEMP:  70; 6HR MAX TEMP:  88;

$$

IAZ055>058-069>071-079>083-090>094-251900-
   SOUTHWEST IOWA

CITY           SKY/WX    TMP DP  RH WIND       PRES   REMARKS
LAMONI         CLOUDY    78  67  68 SW13      29.88F HX  80
6HR MIN TEMP:  68; 6HR MAX TEMP:  78;

$$

IAZ047>049-059>061-072>074-084-251900-
   CENTRAL IOWA

CITY           SKY/WX    TMP DP  RH WIND       PRES   REMARKS
AMES           MOSUNNY   83  69  62 S12       29.83F HX  86
6HR MIN TEMP:  68; 6HR MAX TEMP:  84;

DES MOINES     PTSUNNY   83  69  62 S13       29.83F HX  86
6HR MIN TEMP:  69; 6HR MAX TEMP:  83;

MARSHALLTOWN   MOSUNNY   83  70  64 SW13G22   29.83F HX  87
6HR MIN TEMP:  70; 6HR MAX TEMP:  83;

$$

IAZ004>006-015-016-023>025-035-036-251900-
   NORTH CENTRAL IOWA

CITY           SKY/WX    TMP DP  RH WIND       PRES   REMARKS
ESTHERVILLE    SUNNY     83  65  54 CALM      29.80F HX  85
6HR MIN TEMP:  68; 6HR MAX TEMP:  83;

FORT DODGE *   SUNNY     86  67  52 S12       29.81F HX  89
MASON CITY     MOSUNNY   85  67  54 SW12      29.82F HX  87
6HR MIN TEMP:  68; 6HR MAX TEMP:  85;

$$

IAZ007>011-017>019-026>030-037>042-050>054-066-251900-
   NORTHEAST IOWA

CITY           SKY/WX    TMP DP  RH WIND       PRES   REMARKS
CEDAR RAPIDS   FAIR      82  65  56 SW14      29.85F HX  84
6HR MIN TEMP:  70; 6HR MAX TEMP:  82;

CLINTON *      FAIR      83  68  60 W14       29.87F HX  86
DUBUQUE        FAIR      79  68  69 S10       29.87F HX  81
6HR MIN TEMP:  68; 6HR MAX TEMP:  80;

WATERLOO       FAIR      84  67  56 S10       29.81F HX  86
6HR MIN TEMP:  69; 6HR MAX TEMP:  84;

$$

IAZ064-065-067-068-078-251900-
   EAST CENTRAL IOWA

CITY           SKY/WX    TMP DP  RH WIND       PRES   REMARKS
DAVENPORT      FAIR      82  66  58 SW9       29.89F HX  84
6HR MIN TEMP:  71; 6HR MAX TEMP:  85;

IOWA CITY      FAIR      82  63  52 SW8       29.87F HX  83
6HR MIN TEMP:  71; 6HR MAX TEMP:  82;

QUAD CITIES    PTSUNNY   83  67  58 S8        29.86F HX  85
6HR MIN TEMP:  73; 6HR MAX TEMP:  86;

$$

IAZ062-063-075>077-085>089-095>099-251900-
   SOUTHEAST IOWA

CITY           SKY/WX    TMP DP  RH WIND       PRES   REMARKS
BURLINGTON     CLOUDY    82  67  60 SW12      29.87F HX  84
6HR MIN TEMP:  71; 6HR MAX TEMP:  82; 6HR PCP:  0.04;

OTTUMWA        CLOUDY    80  68  66 S10       29.86F HX  83
6HR MIN TEMP:  70; 6HR MAX TEMP:  80;

$$

ABBREVIATIONS USED IN REMARKS
   TC - TEMPERATURES IN CELSIUS
  WCI - WIND CHILL INDEX
   HX - HEAT INDEX
  VSB - VISIBILITY
$$




USA.gov is the U.S. government's official web portal to all federal, state and local government web resources and services.